| time (UTC) | temp F | wind direction | speed MPH | gust MPH | rain 1hr in | rain 24hr in | rain mn in | humidity % | barometer mb |
| 20260507205307 | 67 | 251 | 4.0 | 9.0 | 0.00 | 0.07 | 0.01 | 42 | 1007.6 |
| 20260507204828 | 67 | 261 | 4.0 | 12.0 | 0.00 | 0.07 | 0.01 | 46 | 1007.6 |
| 20260507204310 | 67 | 279 | 4.0 | 13.0 | 0.00 | 0.07 | 0.01 | 45 | 1007.5 |
| 20260507203812 | 67 | 278 | 5.0 | 9.0 | 0.00 | 0.07 | 0.01 | 44 | 1007.6 |
| 20260507203314 | 67 | 273 | 5.0 | 14.0 | 0.00 | 0.07 | 0.01 | 46 | 1007.7 |
| 20260507202836 | 67 | 243 | 6.0 | 14.0 | 0.00 | 0.07 | 0.01 | 45 | 1007.7 |
| 20260507202317 | 67 | 150 | 2.0 | 9.0 | 0.00 | 0.07 | 0.01 | 49 | 1007.7 |
| 20260507201820 | 66 | 270 | 4.0 | 9.0 | 0.00 | 0.07 | 0.01 | 53 | 1007.6 |
| 20260507201322 | 66 | 312 | 5.0 | 9.0 | 0.00 | 0.07 | 0.01 | 51 | 1007.7 |
| 20260507200823 | 66 | 299 | 5.0 | 9.0 | 0.00 | 0.07 | 0.01 | 53 | 1007.7 |
| 20260507200306 | 66 | 246 | 5.0 | 13.0 | 0.00 | 0.07 | 0.01 | 51 | 1007.6 |
| 20260507195825 | 66 | 298 | 6.0 | 13.0 | 0.00 | 0.07 | 0.01 | 50 | 1007.6 |
| 20260507195306 | 66 | 281 | 8.0 | 13.0 | 0.00 | 0.07 | 0.01 | 52 | 1007.8 |
| 20260507194808 | 65 | 290 | 5.0 | 11.0 | 0.00 | 0.07 | 0.01 | 53 | 1008.1 |
| 20260507194309 | 64 | 345 | 6.0 | 11.0 | 0.00 | 0.07 | 0.01 | 58 | 1008.0 |
| 20260507193813 | 65 | 302 | 3.0 | 9.0 | 0.00 | 0.07 | 0.01 | 56 | 1008.2 |
| 20260507193312 | 66 | 326 | 4.0 | 12.0 | 0.00 | 0.07 | 0.01 | 56 | 1008.1 |
| 20260507192812 | 67 | 236 | 6.0 | 11.0 | 0.00 | 0.07 | 0.01 | 53 | 1008.0 |
| 20260507192310 | 67 | 348 | 4.0 | 11.0 | 0.00 | 0.07 | 0.01 | 56 | 1008.1 |
| 20260507191811 | 66 | 186 | 3.0 | 7.0 | 0.00 | 0.07 | 0.01 | 59 | 1008.1 |
| 20260507191313 | 65 | 218 | 3.0 | 8.0 | 0.00 | 0.07 | 0.01 | 55 | 1008.3 |
| 20260507190815 | 66 | 210 | 3.0 | 9.0 | 0.00 | 0.07 | 0.01 | 58 | 1008.4 |
| 20260507190318 | 65 | 203 | 3.0 | 9.0 | 0.00 | 0.07 | 0.01 | 60 | 1008.4 |
| 20260507185815 | 65 | 257 | 4.0 | 8.0 | 0.00 | 0.07 | 0.01 | 57 | 1008.5 |
| 20260507185317 | 64 | 298 | 3.0 | 8.0 | 0.00 | 0.07 | 0.01 | 59 | 1008.5 |
| 20260507184822 | 64 | 283 | 4.0 | 9.0 | 0.00 | 0.07 | 0.01 | 61 | 1008.6 |
| 20260507184322 | 64 | 263 | 4.0 | 9.0 | 0.00 | 0.07 | 0.01 | 62 | 1008.7 |
| 20260507183843 | 62 | 255 | 3.0 | 11.0 | 0.00 | 0.07 | 0.01 | 73 | 1008.6 |
| 20260507183323 | 63 | 106 | 5.0 | 11.0 | 0.00 | 0.07 | 0.01 | 77 | 1008.5 |
| 20260507182825 | 63 | 108 | 6.0 | 10.0 | 0.00 | 0.07 | 0.01 | 73 | 1008.7 |
| 20260507182343 | 63 | 111 | 4.0 | 9.0 | 0.00 | 0.07 | 0.01 | 73 | 1008.8 |
| 20260507181807 | 62 | 103 | 4.0 | 9.0 | 0.00 | 0.07 | 0.01 | 73 | 1008.8 |
| 20260507181308 | 61 | 130 | 4.0 | 7.0 | 0.00 | 0.07 | 0.01 | 78 | 1008.8 |
| 20260507180809 | 60 | 96 | 5.0 | 8.0 | 0.00 | 0.07 | 0.01 | 79 | 1008.9 |
| 20260507180312 | 59 | 141 | 5.0 | 8.0 | 0.00 | 0.07 | 0.01 | 79 | 1008.9 |
| 20260507175812 | 59 | 196 | 3.0 | 8.0 | 0.00 | 0.07 | 0.01 | 80 | 1009.0 |
| 20260507175314 | 59 | 116 | 4.0 | 8.0 | 0.00 | 0.07 | 0.01 | 80 | 1009.1 |
| 20260507174834 | 59 | 106 | 3.0 | 9.0 | 0.00 | 0.07 | 0.01 | 80 | 1009.1 |
| 20260507174315 | 59 | 120 | 3.0 | 9.0 | 0.00 | 0.07 | 0.01 | 81 | 1009.1 |
| 20260507173819 | 59 | 90 | 4.0 | 11.0 | 0.00 | 0.07 | 0.01 | 79 | 1009.2 |
| 20260507173340 | 59 | 103 | 4.0 | 11.0 | 0.00 | 0.07 | 0.01 | 80 | 1009.2 |
| 20260507172822 | 60 | 96 | 3.0 | 10.0 | 0.00 | 0.07 | 0.01 | 78 | 1009.4 |
| 20260507172343 | 60 | 165 | 4.0 | 9.0 | 0.00 | 0.07 | 0.01 | 77 | 1009.5 |
| 20260507171824 | 60 | 155 | 5.0 | 9.0 | 0.00 | 0.07 | 0.01 | 78 | 1009.6 |
| 20260507171323 | 61 | 84 | 5.0 | 9.0 | 0.00 | 0.07 | 0.01 | 77 | 1009.6 |
| 20260507170825 | 61 | 109 | 2.0 | 6.0 | 0.00 | 0.07 | 0.01 | 81 | 1009.7 |
| 20260507170308 | 60 | 141 | 4.0 | 8.0 | 0.00 | 0.07 | 0.01 | 77 | 1009.7 |
| 20260507165808 | 59 | 105 | 3.0 | 8.0 | 0.00 | 0.07 | 0.01 | 78 | 1009.9 |
| 20260507165310 | 60 | 150 | 4.0 | 8.0 | 0.00 | 0.07 | 0.01 | 76 | 1010.1 |
| 20260507164833 | 60 | 135 | 2.0 | 9.0 | 0.00 | 0.07 | 0.01 | 77 | 1010.1 |
| 20260507164314 | 59 | 90 | 3.0 | 9.0 | 0.00 | 0.07 | 0.01 | 77 | 1010.1 |
| 20260507163836 | 59 | 231 | 2.0 | 6.0 | 0.00 | 0.07 | 0.01 | 75 | 1010.2 |
| 20260507163335 | 58 | 124 | 1.0 | 6.0 | 0.00 | 0.07 | 0.01 | 75 | 1010.3 |
| 20260507162817 | 58 | 84 | 2.0 | 5.0 | 0.00 | 0.07 | 0.01 | 75 | 1010.4 |
| 20260507162319 | 57 | 101 | 3.0 | 6.0 | 0.00 | 0.07 | 0.01 | 80 | 1010.5 |
| 20260507161821 | 57 | 125 | 3.0 | 6.0 | 0.00 | 0.07 | 0.01 | 76 | 1010.7 |
| 20260507161342 | 57 | 115 | 2.0 | 6.0 | 0.00 | 0.07 | 0.01 | 77 | 1010.7 |
| 20260507160824 | 57 | 158 | 2.0 | 6.0 | 0.00 | 0.07 | 0.01 | 76 | 1010.8 |
| 20260507160326 | 58 | 107 | 1.0 | 4.0 | 0.00 | 0.07 | 0.01 | 76 | 1010.8 |
| 20260507155824 | 57 | 94 | 1.0 | 3.0 | 0.00 | 0.07 | 0.01 | 76 | 1011.0 |
| 20260507155326 | 57 | 217 | 0.0 | 5.0 | 0.00 | 0.07 | 0.01 | 77 | 1011.0 |
| 20260507154829 | 56 | 86 | 1.0 | 5.0 | 0.00 | 0.07 | 0.01 | 77 | 1011.0 |
| 20260507154310 | 56 | 98 | 3.0 | 4.0 | 0.00 | 0.07 | 0.01 | 79 | 1011.1 |
| 20260507153811 | 56 | 113 | 1.0 | 4.0 | 0.00 | 0.07 | 0.01 | 81 | 1011.1 |
| 20260507153312 | 56 | 88 | 1.0 | 4.0 | 0.00 | 0.07 | 0.01 | 82 | 1011.2 |
| 20260507152813 | 55 | 23 | 0.0 | 1.0 | 0.00 | 0.07 | 0.01 | 81 | 1011.3 |
| 20260507152316 | 55 | 345 | 0.0 | 2.0 | 0.00 | 0.07 | 0.01 | 81 | 1011.3 |
| 20260507151817 | 54 | 355 | 1.0 | 2.0 | 0.00 | 0.07 | 0.01 | 80 | 1011.3 |
| 20260507151319 | 55 | 247 | 1.0 | 2.0 | 0.00 | 0.07 | 0.01 | 80 | 1011.5 |
| 20260507150821 | 54 | 300 | 0.0 | 1.0 | 0.00 | 0.07 | 0.01 | 82 | 1011.4 |
| 20260507150321 | 54 | 307 | 0.0 | 3.0 | 0.00 | 0.07 | 0.01 | 82 | 1011.6 |
| 20260507145820 | 54 | 307 | 1.0 | 6.0 | 0.00 | 0.07 | 0.01 | 82 | 1011.4 |
| 20260507145321 | 54 | 347 | 4.0 | 6.0 | 0.00 | 0.07 | 0.01 | 81 | 1011.4 |
| 20260507144825 | 54 | 352 | 2.0 | 5.0 | 0.00 | 0.07 | 0.01 | 81 | 1011.5 |
| 20260507144326 | 53 | 356 | 3.0 | 6.0 | 0.00 | 0.07 | 0.01 | 82 | 1011.5 |
| 20260507143807 | 53 | 78 | 0.0 | 5.0 | 0.00 | 0.07 | 0.01 | 83 | 1011.5 |
| 20260507143310 | 53 | 14 | 3.0 | 5.0 | 0.00 | 0.07 | 0.01 | 83 | 1011.4 |
| 20260507142811 | 54 | 72 | 1.0 | 2.0 | 0.00 | 0.07 | 0.01 | 86 | 1011.5 |
| 20260507142334 | 53 | 285 | 1.0 | 2.0 | 0.00 | 0.07 | 0.01 | 83 | 1011.6 |
| 20260507141809 | 53 | 318 | 0.0 | 5.0 | 0.00 | 0.07 | 0.01 | 84 | 1011.7 |
| 20260507141310 | 53 | 312 | 0.0 | 5.0 | 0.00 | 0.07 | 0.01 | 84 | 1011.8 |
| 20260507140812 | 53 | 319 | 2.0 | 4.0 | 0.00 | 0.07 | 0.01 | 84 | 1012.0 |
| 20260507140314 | 53 | 295 | 1.0 | 5.0 | 0.00 | 0.07 | 0.01 | 85 | 1012.0 |
| 20260507135813 | 53 | 262 | 2.0 | 5.0 | 0.00 | 0.08 | 0.01 | 87 | 1011.9 |
| 20260507135317 | 53 | 347 | 0.0 | 1.0 | 0.00 | 0.08 | 0.01 | 90 | 1011.9 |
| 20260507134819 | 53 | 86 | 0.0 | 1.0 | 0.00 | 0.08 | 0.01 | 91 | 1011.9 |
| 20260507134341 | 53 | 86 | 0.0 | 0.0 | 0.00 | 0.08 | 0.01 | 91 | 1011.9 |
| 20260507133822 | 53 | 113 | 0.0 | 1.0 | 0.00 | 0.08 | 0.01 | 91 | 1012.1 |
| 20260507133323 | 53 | 113 | 0.0 | 2.0 | 0.00 | 0.08 | 0.01 | 90 | 1012.0 |
| 20260507132827 | 53 | 127 | 1.0 | 2.0 | 0.00 | 0.08 | 0.01 | 91 | 1011.9 |
| 20260507132348 | 53 | 130 | 0.0 | 1.0 | 0.00 | 0.08 | 0.01 | 91 | 1011.9 |
| 20260507131848 | 53 | 130 | 0.0 | 1.0 | 0.00 | 0.08 | 0.01 | 91 | 1012.0 |
| 20260507131328 | 53 | 130 | 0.0 | 2.0 | 0.00 | 0.08 | 0.01 | 91 | 1012.0 |
| 20260507130810 | 53 | 23 | 0.0 | 2.0 | 0.00 | 0.08 | 0.01 | 91 | 1012.0 |
| 20260507130311 | 53 | 39 | 0.0 | 3.0 | 0.00 | 0.08 | 0.01 | 91 | 1011.9 |
| 20260507125810 | 52 | 32 | 0.0 | 3.0 | 0.00 | 0.09 | 0.01 | 91 | 1011.9 |
| 20260507125311 | 52 | 34 | 2.0 | 4.0 | 0.00 | 0.09 | 0.01 | 91 | 1011.9 |
| 20260507124834 | 52 | 37 | 2.0 | 4.0 | 0.00 | 0.09 | 0.01 | 91 | 1011.9 |
| 20260507124316 | 53 | 28 | 1.0 | 4.0 | 0.00 | 0.09 | 0.01 | 92 | 1012.1 |
| 20260507123840 | 53 | 359 | 2.0 | 4.0 | 0.00 | 0.09 | 0.01 | 91 | 1012.0 |
| 20260507123321 | 53 | 356 | 2.0 | 4.0 | 0.00 | 0.09 | 0.01 | 91 | 1012.0 |
| 20260507122825 | 53 | 25 | 0.0 | 5.0 | 0.00 | 0.09 | 0.01 | 91 | 1012.0 |
| 20260507122325 | 53 | 13 | 0.0 | 3.0 | 0.00 | 0.09 | 0.01 | 92 | 1012.0 |
| 20260507121827 | 53 | 34 | 1.0 | 5.0 | 0.00 | 0.09 | 0.01 | 92 | 1011.9 |
| 20260507121328 | 53 | 27 | 3.0 | 5.0 | 0.00 | 0.09 | 0.01 | 91 | 1011.9 |
| 20260507120810 | 53 | 328 | 2.0 | 4.0 | 0.00 | 0.09 | 0.01 | 91 | 1011.9 |
| 20260507120313 | 53 | 323 | 1.0 | 3.0 | 0.00 | 0.09 | 0.01 | 92 | 1011.7 |
| 20260507115811 | 53 | 330 | 2.0 | 7.0 | 0.00 | 0.13 | 0.01 | 92 | 1011.7 |
| 20260507115313 | 53 | 34 | 3.0 | 7.0 | 0.00 | 0.13 | 0.01 | 92 | 1011.6 |
| 20260507114815 | 53 | 13 | 2.0 | 5.0 | 0.00 | 0.13 | 0.01 | 92 | 1011.5 |
| 20260507114338 | 53 | 39 | 2.0 | 3.0 | 0.00 | 0.13 | 0.01 | 92 | 1011.5 |
| 20260507113818 | 53 | 36 | 0.0 | 3.0 | 0.00 | 0.13 | 0.01 | 93 | 1011.5 |
| 20260507113319 | 53 | 2 | 1.0 | 3.0 | 0.00 | 0.13 | 0.01 | 93 | 1011.5 |
| 20260507112821 | 53 | 105 | 0.0 | 1.0 | 0.00 | 0.13 | 0.01 | 93 | 1011.6 |
| 20260507112323 | 53 | 91 | 0.0 | 1.0 | 0.00 | 0.13 | 0.01 | 94 | 1011.5 |
| 20260507111846 | 53 | 70 | 0.0 | 2.0 | 0.00 | 0.13 | 0.01 | 94 | 1011.5 |
| 20260507111327 | 53 | 70 | 0.0 | 2.0 | 0.00 | 0.13 | 0.01 | 94 | 1011.3 |
| 20260507110830 | 53 | 38 | 0.0 | 6.0 | 0.00 | 0.13 | 0.01 | 94 | 1011.1 |
| 20260507110313 | 53 | 36 | 4.0 | 6.0 | 0.00 | 0.13 | 0.01 | 94 | 1011.1 |
| 20260507105810 | 53 | 347 | 4.0 | 6.0 | 0.00 | 0.14 | 0.01 | 94 | 1011.3 |
| 20260507105313 | 53 | 54 | 2.0 | 6.0 | 0.00 | 0.14 | 0.01 | 94 | 1011.1 |
| 20260507104813 | 53 | 24 | 2.0 | 6.0 | 0.00 | 0.14 | 0.01 | 94 | 1010.9 |
| 20260507104335 | 53 | 350 | 0.0 | 1.0 | 0.00 | 0.14 | 0.01 | 95 | 1010.9 |
| 20260507103836 | 53 | 273 | 0.0 | 0.0 | 0.00 | 0.14 | 0.01 | 94 | 1010.8 |
| 20260507103335 | 53 | 273 | 0.0 | 0.0 | 0.00 | 0.14 | 0.01 | 94 | 1010.7 |
| 20260507102815 | 54 | 274 | 0.0 | 0.0 | 0.00 | 0.14 | 0.01 | 94 | 1010.6 |
| 20260507102319 | 54 | 274 | 0.0 | 1.0 | 0.00 | 0.14 | 0.01 | 94 | 1010.7 |
| 20260507101819 | 53 | 274 | 0.0 | 2.0 | 0.00 | 0.14 | 0.01 | 94 | 1010.7 |
| 20260507101341 | 53 | 251 | 1.0 | 2.0 | 0.00 | 0.14 | 0.01 | 95 | 1010.6 |
| 20260507100821 | 53 | 342 | 0.0 | 2.0 | 0.00 | 0.14 | 0.01 | 95 | 1010.6 |
| 20260507100324 | 53 | 309 | 0.0 | 2.0 | 0.00 | 0.14 | 0.01 | 95 | 1010.7 |
| 20260507095823 | 53 | 257 | 0.0 | 0.0 | 0.00 | 0.14 | 0.01 | 95 | 1010.8 |
| 20260507095327 | 53 | 257 | 0.0 | 1.0 | 0.00 | 0.14 | 0.01 | 95 | 1010.6 |
| 20260507094827 | 53 | 257 | 0.0 | 1.0 | 0.00 | 0.14 | 0.01 | 95 | 1010.6 |
| 20260507094330 | 53 | 257 | 0.0 | 1.0 | 0.00 | 0.14 | 0.01 | 94 | 1010.6 |
| 20260507093829 | 53 | 257 | 0.0 | 1.0 | 0.00 | 0.14 | 0.01 | 95 | 1010.4 |
| 20260507093331 | 53 | 257 | 0.0 | 1.0 | 0.00 | 0.14 | 0.01 | 95 | 1010.3 |
| 20260507092833 | 53 | 259 | 1.0 | 1.0 | 0.00 | 0.14 | 0.01 | 95 | 1010.5 |
| 20260507092313 | 53 | 245 | 1.0 | 1.0 | 0.00 | 0.14 | 0.01 | 95 | 1010.7 |
| 20260507091815 | 53 | 245 | 1.0 | 2.0 | 0.00 | 0.14 | 0.01 | 95 | 1010.6 |
| 20260507091316 | 54 | 245 | 1.0 | 2.0 | 0.00 | 0.14 | 0.01 | 95 | 1010.5 |
| 20260507090818 | 54 | 266 | 1.0 | 2.0 | 0.00 | 0.14 | 0.01 | 94 | 1010.4 |
| 20260507090321 | 54 | 255 | 0.0 | 4.0 | 0.00 | 0.14 | 0.01 | 94 | 1010.4 |
| 20260507085840 | 54 | 260 | 2.0 | 4.0 | 0.00 | 0.14 | 0.01 | 94 | 1010.6 |
| 20260507085322 | 54 | 260 | 3.0 | 4.0 | 0.00 | 0.14 | 0.01 | 95 | 1010.5 |
| 20260507084824 | 54 | 264 | 2.0 | 4.0 | 0.00 | 0.14 | 0.01 | 95 | 1010.5 |
| 20260507084346 | 54 | 243 | 0.0 | 5.0 | 0.00 | 0.14 | 0.01 | 95 | 1010.4 |
| 20260507083827 | 54 | 262 | 3.0 | 5.0 | 0.00 | 0.14 | 0.01 | 96 | 1010.4 |
| 20260507083328 | 54 | 261 | 2.0 | 4.0 | 0.00 | 0.14 | 0.01 | 96 | 1010.3 |
| 20260507082810 | 54 | 264 | 1.0 | 3.0 | 0.00 | 0.14 | 0.01 | 96 | 1010.3 |
| 20260507082329 | 54 | 263 | 2.0 | 3.0 | 0.00 | 0.14 | 0.01 | 96 | 1010.3 |
| 20260507081831 | 54 | 289 | 1.0 | 2.0 | 0.00 | 0.14 | 0.01 | 96 | 1010.1 |
| 20260507081312 | 55 | 285 | 0.0 | 1.0 | 0.00 | 0.14 | 0.01 | 96 | 1010.0 |
| 20260507080814 | 55 | 257 | 0.0 | 0.0 | 0.00 | 0.14 | 0.01 | 96 | 1010.2 |
| 20260507080317 | 55 | 257 | 0.0 | 0.0 | 0.00 | 0.14 | 0.01 | 96 | 1010.2 |
| 20260507075816 | 55 | 257 | 0.0 | 0.0 | 0.00 | 0.14 | 0.01 | 97 | 1010.3 |
| 20260507075318 | 56 | 257 | 0.0 | 0.0 | 0.00 | 0.14 | 0.01 | 97 | 1010.3 |
| 20260507074821 | 56 | 257 | 0.0 | 0.0 | 0.00 | 0.14 | 0.01 | 97 | 1010.4 |
| 20260507074322 | 56 | 257 | 0.0 | 1.0 | 0.00 | 0.14 | 0.01 | 97 | 1010.4 |
| 20260507073825 | 56 | 258 | 0.0 | 1.0 | 0.00 | 0.14 | 0.01 | 97 | 1010.4 |
| 20260507073325 | 56 | 258 | 0.0 | 1.0 | 0.00 | 0.14 | 0.01 | 97 | 1010.5 |
| 20260507072848 | 56 | 258 | 1.0 | 1.0 | 0.00 | 0.14 | 0.01 | 97 | 1010.3 |
| 20260507072328 | 56 | 255 | 0.0 | 0.0 | 0.00 | 0.14 | 0.01 | 97 | 1010.3 |
| 20260507071829 | 56 | 255 | 0.0 | 0.0 | 0.00 | 0.14 | 0.01 | 97 | 1010.3 |
| 20260507071312 | 56 | 255 | 0.0 | 1.0 | 0.00 | 0.14 | 0.01 | 97 | 1010.4 |
| 20260507070835 | 57 | 253 | 0.0 | 2.0 | 0.00 | 0.14 | 0.01 | 97 | 1010.5 |
| 20260507070317 | 57 | 252 | 1.0 | 2.0 | 0.00 | 0.14 | 0.01 | 97 | 1010.4 |
| 20260507065815 | 57 | 271 | 0.0 | 1.0 | 0.00 | 0.14 | 0.01 | 97 | 1010.3 |
| 20260507065318 | 57 | 18 | 0.0 | 0.0 | 0.00 | 0.14 | 0.01 | 96 | 1009.9 |
| 20260507064821 | 57 | 18 | 0.0 | 0.0 | 0.00 | 0.14 | 0.01 | 97 | 1009.9 |
| 20260507064323 | 57 | 20 | 0.0 | 0.0 | 0.00 | 0.14 | 0.01 | 96 | 1009.9 |
| 20260507063824 | 57 | 20 | 0.0 | 1.0 | 0.00 | 0.14 | 0.01 | 96 | 1010.2 |
| 20260507063326 | 57 | 20 | 0.0 | 2.0 | 0.00 | 0.14 | 0.01 | 96 | 1010.0 |
| 20260507062848 | 58 | 8 | 1.0 | 2.0 | 0.00 | 0.14 | 0.01 | 95 | 1010.2 |
| 20260507062328 | 57 | 131 | 0.0 | 1.0 | 0.00 | 0.14 | 0.01 | 96 | 1010.3 |
| 20260507061829 | 57 | 134 | 0.0 | 1.0 | 0.00 | 0.14 | 0.01 | 96 | 1010.2 |
| 20260507061350 | 58 | 135 | 0.0 | 1.0 | 0.00 | 0.14 | 0.01 | 95 | 1010.5 |
| 20260507060811 | 58 | 135 | 0.0 | 1.0 | 0.00 | 0.14 | 0.01 | 95 | 1010.4 |
| 20260507060314 | 58 | 135 | 0.0 | 1.0 | 0.00 | 0.14 | 0.01 | 95 | 1010.3 |
| 20260507055829 | 58 | 135 | 0.0 | 1.0 | 0.00 | 0.14 | 0.01 | 94 | 1010.2 |
| 20260507055311 | 58 | 24 | 0.0 | 1.0 | 0.00 | 0.14 | 0.01 | 94 | 1010.3 |
| 20260507054831 | 58 | 24 | 0.0 | 1.0 | 0.00 | 0.14 | 0.01 | 94 | 1010.4 |
| 20260507054330 | 59 | 23 | 0.0 | 1.0 | 0.00 | 0.14 | 0.01 | 94 | 1010.6 |
| 20260507053811 | 59 | 25 | 0.0 | 1.0 | 0.00 | 0.14 | 0.01 | 93 | 1010.6 |
| 20260507053313 | 59 | 341 | 0.0 | 1.0 | 0.00 | 0.14 | 0.01 | 93 | 1010.7 |
| 20260507052814 | 59 | 341 | 0.0 | 1.0 | 0.00 | 0.14 | 0.01 | 94 | 1010.6 |
| 20260507052316 | 58 | 111 | 0.0 | 3.0 | 0.00 | 0.14 | 0.01 | 95 | 1010.4 |
| 20260507051838 | 58 | 101 | 2.0 | 3.0 | 0.00 | 0.14 | 0.01 | 96 | 1010.4 |
| 20260507051319 | 58 | 280 | 1.0 | 3.0 | 0.00 | 0.14 | 0.01 | 96 | 1010.9 |
| 20260507050820 | 58 | 212 | 1.0 | 3.0 | 0.00 | 0.14 | 0.01 | 96 | 1010.7 |
| 20260507050322 | 58 | 106 | 0.0 | 1.0 | 0.01 | 0.14 | 0.01 | 96 | 1010.4 |
| 20260507045823 | 58 | 96 | 0.0 | 1.0 | 0.01 | 0.14 | 0.01 | 96 | 1010.4 |
| 20260507045324 | 58 | 96 | 0.0 | 1.0 | 0.01 | 0.14 | 0.01 | 96 | 1010.3 |
| 20260507044826 | 58 | 95 | 0.0 | 1.0 | 0.01 | 0.14 | 0.01 | 95 | 1010.0 |
| 20260507044326 | 59 | 252 | 0.0 | 1.0 | 0.01 | 0.14 | 0.01 | 95 | 1010.2 |
| 20260507043828 | 59 | 252 | 0.0 | 2.0 | 0.01 | 0.14 | 0.01 | 95 | 1010.2 |
| 20260507043329 | 59 | 289 | 1.0 | 3.0 | 0.01 | 0.14 | 0.01 | 94 | 1009.8 |
| 20260507042829 | 59 | 283 | 1.0 | 3.0 | 0.01 | 0.14 | 0.01 | 94 | 1009.8 |
| 20260507042312 | 60 | 219 | 1.0 | 2.0 | 0.04 | 0.14 | 0.01 | 94 | 1009.7 |
| 20260507041814 | 60 | 288 | 1.0 | 6.0 | 0.04 | 0.14 | 0.01 | 94 | 1009.5 |
| 20260507041315 | 60 | 266 | 3.0 | 6.0 | 0.04 | 0.14 | 0.01 | 94 | 1009.9 |
| 20260507040817 | 59 | 129 | 2.0 | 5.0 | 0.04 | 0.14 | 0.01 | 95 | 1009.2 |
| 20260507040317 | 59 | 160 | 1.0 | 4.0 | 0.03 | 0.13 | 0.00 | 95 | 1009.9 |
| 20260507035850 | 59 | 120 | 1.0 | 2.0 | 0.03 | 0.13 | 0.13 | 95 | 1010.2 |
| 20260507035330 | 59 | 117 | 0.0 | 2.0 | 0.03 | 0.13 | 0.13 | 94 | 1010.4 |
| 20260507034850 | 60 | 144 | 0.0 | 2.0 | 0.03 | 0.13 | 0.13 | 93 | 1010.7 |
| 20260507034312 | 60 | 250 | 1.0 | 2.0 | 0.03 | 0.13 | 0.13 | 92 | 1010.7 |
| 20260507033833 | 60 | 139 | 0.0 | 6.0 | 0.03 | 0.13 | 0.13 | 92 | 1010.6 |
| 20260507033316 | 61 | 137 | 0.0 | 6.0 | 0.03 | 0.13 | 0.13 | 91 | 1010.6 |
| 20260507032817 | 61 | 252 | 2.0 | 5.0 | 0.03 | 0.13 | 0.13 | 91 | 1010.9 |
| 20260507032338 | 61 | 217 | 0.0 | 3.0 | 0.00 | 0.10 | 0.10 | 90 | 1011.1 |
| 20260507031818 | 61 | 233 | 0.0 | 3.0 | 0.00 | 0.10 | 0.10 | 90 | 1011.1 |
| 20260507031320 | 62 | 247 | 1.0 | 5.0 | 0.00 | 0.10 | 0.10 | 89 | 1011.1 |
| 20260507030838 | 62 | 260 | 1.0 | 5.0 | 0.00 | 0.10 | 0.10 | 88 | 1011.1 |
| 20260507030320 | 62 | 293 | 0.0 | 4.0 | 0.00 | 0.10 | 0.10 | 89 | 1010.5 |
| 20260507025819 | 62 | 87 | 0.0 | 3.0 | 0.00 | 0.10 | 0.10 | 89 | 1010.4 |
| 20260507025321 | 62 | 241 | 0.0 | 4.0 | 0.00 | 0.10 | 0.10 | 89 | 1010.6 |
| 20260507024824 | 62 | 244 | 1.0 | 5.0 | 0.00 | 0.10 | 0.10 | 89 | 1010.8 |
| 20260507024325 | 62 | 237 | 2.0 | 5.0 | 0.00 | 0.10 | 0.10 | 90 | 1010.6 |
| 20260507023849 | 62 | 264 | 0.0 | 2.0 | 0.00 | 0.10 | 0.10 | 91 | 1010.4 |
| 20260507023351 | 62 | 258 | 0.0 | 3.0 | 0.00 | 0.10 | 0.10 | 90 | 1010.3 |
| 20260507022831 | 62 | 255 | 0.0 | 4.0 | 0.00 | 0.10 | 0.10 | 90 | 1010.2 |
| 20260507022331 | 62 | 261 | 2.0 | 5.0 | 0.00 | 0.10 | 0.10 | 89 | 1010.2 |
| 20260507021811 | 63 | 274 | 2.0 | 5.0 | 0.00 | 0.10 | 0.10 | 89 | 1010.1 |
| 20260507021314 | 63 | 262 | 2.0 | 5.0 | 0.00 | 0.10 | 0.10 | 89 | 1010.4 |
| 20260507020816 | 63 | 277 | 0.0 | 7.0 | 0.00 | 0.10 | 0.10 | 90 | 1010.2 |
| 20260507020318 | 63 | 105 | 3.0 | 7.0 | 0.00 | 0.10 | 0.10 | 89 | 1010.1 |
| 20260507015818 | 63 | 240 | 2.0 | 6.0 | 0.00 | 0.10 | 0.10 | 89 | 1010.4 |
| 20260507015319 | 63 | 214 | 1.0 | 4.0 | 0.00 | 0.10 | 0.10 | 91 | 1010.3 |
| 20260507014821 | 63 | 229 | 2.0 | 4.0 | 0.00 | 0.10 | 0.10 | 94 | 1010.2 |
| 20260507014322 | 63 | 220 | 0.0 | 2.0 | 0.00 | 0.10 | 0.10 | 95 | 1010.2 |
| 20260507013824 | 63 | 258 | 1.0 | 2.0 | 0.00 | 0.10 | 0.10 | 94 | 1010.0 |
| 20260507013306 | 63 | 286 | 0.0 | 2.0 | 0.00 | 0.10 | 0.10 | 94 | 1009.8 |
| 20260507012828 | 63 | 266 | 0.0 | 2.0 | 0.00 | 0.10 | 0.10 | 94 | 1009.7 |
| 20260507012310 | 63 | 276 | 1.0 | 2.0 | 0.00 | 0.10 | 0.10 | 95 | 1009.7 |
| 20260507011833 | 62 | 102 | 0.0 | 2.0 | 0.00 | 0.10 | 0.10 | 96 | 1009.2 |
| 20260507011334 | 62 | 122 | 1.0 | 2.0 | 0.00 | 0.10 | 0.10 | 95 | 1009.1 |
| 20260507010814 | 63 | 281 | 0.0 | 1.0 | 0.00 | 0.10 | 0.10 | 96 | 1009.5 |
| 20260507010338 | 63 | 281 | 1.0 | 1.0 | 0.00 | 0.10 | 0.10 | 96 | 1009.7 |
| 20260507005816 | 63 | 141 | 0.0 | 1.0 | 0.00 | 0.10 | 0.10 | 95 | 1009.6 |
| 20260507005317 | 63 | 227 | 0.0 | 1.0 | 0.00 | 0.10 | 0.10 | 95 | 1009.6 |
| 20260507004819 | 63 | 227 | 0.0 | 1.0 | 0.00 | 0.10 | 0.10 | 95 | 1009.5 |
| 20260507004341 | 63 | 227 | 0.0 | 1.0 | 0.00 | 0.10 | 0.10 | 95 | 1009.7 |
| 20260507003824 | 63 | 227 | 0.0 | 3.0 | 0.00 | 0.10 | 0.10 | 95 | 1009.8 |
| 20260507003345 | 63 | 276 | 1.0 | 4.0 | 0.00 | 0.10 | 0.10 | 96 | 1009.8 |
| 20260507002807 | 63 | 224 | 2.0 | 4.0 | 0.02 | 0.10 | 0.10 | 96 | 1009.7 |
| 20260507002309 | 63 | 261 | 1.0 | 1.0 | 0.03 | 0.10 | 0.10 | 96 | 1009.8 |
| 20260507001808 | 63 | 121 | 0.0 | 1.0 | 0.03 | 0.10 | 0.10 | 95 | 1009.7 |
| 20260507001309 | 63 | 211 | 1.0 | 1.0 | 0.03 | 0.10 | 0.10 | 95 | 1009.8 |
| 20260507000811 | 64 | 285 | 0.0 | 2.0 | 0.03 | 0.10 | 0.10 | 94 | 1009.6 |
| 20260507000333 | 64 | 286 | 1.0 | 2.0 | 0.03 | 0.10 | 0.10 | 94 | 1009.7 |
| 20260506235812 | 64 | 245 | 0.0 | 1.0 | 0.03 | 0.10 | 0.10 | 93 | 1009.5 |
| 20260506235313 | 64 | 244 | 0.0 | 1.0 | 0.03 | 0.10 | 0.10 | 93 | 1009.5 |
| 20260506234816 | 64 | 244 | 0.0 | 1.0 | 0.03 | 0.10 | 0.10 | 92 | 1009.5 |
| 20260506234316 | 64 | 244 | 0.0 | 2.0 | 0.03 | 0.10 | 0.10 | 91 | 1009.5 |
| 20260506233812 | 65 | 139 | 1.0 | 2.0 | 0.03 | 0.10 | 0.10 | 90 | 1009.2 |
| 20260506233313 | 66 | 181 | 0.0 | 2.0 | 0.03 | 0.10 | 0.10 | 89 | 1009.6 |
| 20260506232815 | 66 | 140 | 1.0 | 6.0 | 0.01 | 0.08 | 0.08 | 87 | 1009.4 |
| 20260506232316 | 67 | 257 | 2.0 | 7.0 | 0.00 | 0.07 | 0.07 | 85 | 1009.3 |
| 20260506231818 | 68 | 297 | 4.0 | 7.0 | 0.00 | 0.07 | 0.07 | 83 | 1009.4 |
| 20260506231319 | 68 | 255 | 4.0 | 6.0 | 0.00 | 0.07 | 0.07 | 82 | 1009.2 |
| 20260506230822 | 68 | 271 | 2.0 | 6.0 | 0.00 | 0.07 | 0.07 | 81 | 1009.1 |
| 20260506230325 | 68 | 246 | 3.0 | 6.0 | 0.00 | 0.07 | 0.07 | 81 | 1009.2 |
| 20260506225805 | 69 | 219 | 2.0 | 10.0 | 0.00 | 0.07 | 0.07 | 80 | 1009.1 |
| 20260506225308 | 69 | 241 | 2.0 | 10.0 | 0.00 | 0.07 | 0.07 | 81 | 1009.2 |
| 20260506224809 | 69 | 216 | 2.0 | 6.0 | 0.00 | 0.07 | 0.07 | 81 | 1009.1 |
| 20260506224312 | 69 | 249 | 3.0 | 14.0 | 0.00 | 0.07 | 0.07 | 80 | 1009.1 |
| 20260506223814 | 69 | 260 | 5.0 | 14.0 | 0.00 | 0.07 | 0.07 | 80 | 1009.1 |
| 20260506223316 | 69 | 252 | 4.0 | 11.0 | 0.00 | 0.07 | 0.07 | 81 | 1008.9 |
| 20260506222818 | 69 | 255 | 7.0 | 11.0 | 0.00 | 0.07 | 0.07 | 81 | 1008.9 |
| 20260506222320 | 69 | 247 | 2.0 | 7.0 | 0.00 | 0.07 | 0.07 | 81 | 1008.7 |
| 20260506221822 | 69 | 229 | 1.0 | 11.0 | 0.00 | 0.07 | 0.07 | 81 | 1008.8 |
| 20260506221343 | 69 | 230 | 5.0 | 13.0 | 0.00 | 0.07 | 0.07 | 81 | 1008.7 |
| 20260506220824 | 69 | 250 | 6.0 | 13.0 | 0.00 | 0.07 | 0.07 | 81 | 1008.8 |
| 20260506220325 | 69 | 246 | 6.0 | 12.0 | 0.00 | 0.07 | 0.07 | 81 | 1008.7 |
| 20260506215806 | 70 | 219 | 5.0 | 15.0 | 0.00 | 0.07 | 0.07 | 81 | 1008.7 |
| 20260506215310 | 70 | 223 | 8.0 | 13.0 | 0.00 | 0.07 | 0.07 | 80 | 1008.6 |
| 20260506214814 | 70 | 229 | 5.0 | 12.0 | 0.00 | 0.07 | 0.07 | 80 | 1008.5 |
| 20260506214338 | 69 | 248 | 4.0 | 14.0 | 0.00 | 0.07 | 0.07 | 81 | 1008.6 |
| 20260506213818 | 69 | 252 | 5.0 | 11.0 | 0.00 | 0.07 | 0.07 | 81 | 1008.8 |
| 20260506213318 | 69 | 285 | 6.0 | 13.0 | 0.00 | 0.07 | 0.07 | 80 | 1008.7 |
| 20260506212819 | 70 | 165 | 3.0 | 13.0 | 0.00 | 0.07 | 0.07 | 80 | 1008.8 |
| 20260506212322 | 70 | 274 | 6.0 | 11.0 | 0.00 | 0.07 | 0.07 | 80 | 1008.8 |
| 20260506211824 | 70 | 266 | 3.0 | 9.0 | 0.00 | 0.07 | 0.07 | 80 | 1008.6 |
| 20260506211307 | 70 | 233 | 4.0 | 11.0 | 0.00 | 0.07 | 0.07 | 81 | 1008.6 |
| 20260506210810 | 69 | 242 | 4.0 | 11.0 | 0.00 | 0.07 | 0.07 | 81 | 1008.6 |
| 20260506210311 | 69 | 236 | 3.0 | 10.0 | 0.00 | 0.07 | 0.07 | 82 | 1008.5 |
| 20260506205811 | 69 | 283 | 5.0 | 8.0 | 0.00 | 0.07 | 0.07 | 81 | 1008.5 |